Location: Middelsbur
(53.6609°N, 7.5020°E)
Time: 03:40:01
(UTC+00:00)

Cosmos 1452 Rocket - Visible Passes

Search period start: 23 October 2020 00:00
Search period end: 02 November 2020 00:00
Orbit: 767 x 775 km, 74.1° (Epoch: 22 October)

Date Brightness Start Highest point End Pass type
(mag) Time Alt. Az. Time Alt. Az. Time Alt. Az.
23 Oct 3.9 17:48:52 10° SW 17:54:07 68° WNW 17:59:25 10° NNE visible
23 Oct 6.0 19:33:38 10° W 19:37:18 19° NW 19:40:59 10° N visible
24 Oct 3.5 17:12:39 10° SSW 17:17:54 84° ESE 17:23:14 10° NNE visible
24 Oct 5.6 18:56:27 10° W 19:00:44 24° NW 19:05:01 10° N visible
25 Oct 5.2 18:19:30 10° WSW 18:24:14 32° NW 18:29:00 10° NNE visible
25 Oct 6.3 20:06:24 10° NW 20:08:09 11° NNW 20:09:55 10° N visible
26 Oct 4.6 17:42:47 10° SW 17:47:50 45° NW 17:52:56 10° NNE visible
26 Oct 6.2 19:28:36 10° WNW 19:31:25 14° NNW 19:34:14 10° N visible
27 Oct 4.0 17:06:18 10° SW 17:11:32 65° WNW 17:16:49 10° NNE visible
27 Oct 6.0 18:51:08 10° W 18:54:45 18° NW 18:58:22 10° N visible
28 Oct 5.6 18:13:56 10° W 18:18:10 24° NW 18:22:25 10° N visible
29 Oct 5.2 17:36:58 10° WSW 17:41:40 32° NW 17:46:24 10° NNE visible
29 Oct 6.3 19:23:58 10° NW 19:25:37 11° NNW 19:27:16 10° N visible
30 Oct 4.7 17:00:14 10° SW 17:05:16 44° NW 17:10:21 10° NNE visible
30 Oct 6.1 18:46:07 10° WNW 18:48:52 14° NNW 18:51:37 10° N visible
31 Oct 5.9 18:08:39 10° WNW 18:12:12 18° NW 18:15:46 10° N visible
01 Nov 5.6 17:31:25 10° W 17:35:37 23° NW 17:39:49 10° N visible
